STARLINK-11477 [DTC]

Last updated on Fri Jan 31 2025 00:02:04 GMT+0000 (Coordinated Universal Time)

1 62471U 24254K 25030.58334491 -.00045790 00000+0 -26250-3 0 9998 2 62471 43.0010 134.2008 0001332 270.5733 213.5497 15.77786644 6028
UTC large
Height (km)
Speed (km/s)
/
Latitude / Longitude
Inclination (degrees)
Orbital Period (minutes)
Azimuth
Elevation
Range (km)
Doppler Factor

Next 0 passes for location: London (51.5072 / 0.1276)

Sorry there are no passes over London.